User: anonymous   Login
Location: Carrer del Canonge
(41.4901°N, 2.2931°E)
Time: 12:34:57
(UTC+00:00)
Language:

MOS 1 Rocket - Orbit

View from above orbital plane
View from above orbital plane
View from above satellite
View from above satellite

Ground track
Ground track

The orbit data is extracted from the following two-line orbital elements,

1 17528U 87018B   21162.74061020  .00000034  00000-0  16438-4 0  9992
2 17528  97.4099 335.4002 0152686  55.9648 305.5942 14.51062588790324
Epoch (UTC): 11 June 2021 17:46:28
Eccentricity: 0.0152686
inclination: 97.4099°
perigee height: 614 km
apogee height: 830 km
right ascension of ascending node: 335.4002°
argument of perigee: 55.9648°
revolutions per day: 14.51062588
mean anomaly at epoch: 305.5942°
orbit number at epoch: 79032

The dashed part of the orbit path shows where the satellite is in the earth's shadow,  

DLR